STARLINK-31842, 59672

Orbit data source: Space-Track

STARLINK-31842, 59672 is a payload satellite owned by SpaceX/Seattle (US) in LEO that was launched on Mon, 06 May 2024 UTC via an FALCON 9 launch vehicle from the Air Force Eastern Test Range (AFETR). Payload-class satellites include a variety of spacecraft equipped with specific instruments for various scientific and technological missions. These include communications satellites like Starlink; space stations such as the ISS; scientific satellites like the Hubble; Earth observation satellites from companies like Planet Labs, Umbra, and HawkEye 360; GPS; miniature CubeSats for education and research; and military/defense satellites.

Loading next visibility...
Identifier
59672, 2024-084U
Orbit
LEO
Country
Flag of USUS
Related business
Manufacturer
SpaceX/Seattle
Mission
Operational Commercial Communications
Bus & Motor
STARLINK V2M, Unknown motor
Mass
730 kg wet, ~700 kg dry
Launch date (UTC)
2024-05-06 (1 year ago)
Launch vehicle
FALCON 9
Launch site
Air Force Eastern Test Range (AFETR)
Object type
Payload
Rocket body
Debris
Shape & HBR
Box + 2 Pan, 17.7 m
Radar Cross Section
33.884 m², Large (>1 m²)

Expand to show TLE details & history
Last TLE update: 22 hours ago

TLE from 22 hours ago
0 STARLINK-31842
1 59672U 24084U   25287.88805136 -.00000929  00000-0 -24264-4 0  9994
2 59672  43.0005 141.8330 0000958 277.5154  82.5588 15.27570451 82111
Epoch: 2025-10-14T21:18Z
TLE epoch observation values (Epoch: 2025-10-14T21:18:47.637Z)
Latitude
-0.00007°
Longitude
158.46441°
Altitude
482.768 km
Speed
7.626 km/s
True Right ascension
09h 27m 19s
True Declination
0° 00' 00"
Sunlit
Object was in daylight at epoch
Visualization orbit readout
Latitude
Unknown
Longitude
Unknown
Altitude
Unknown
Speed
Unknown
Apparent Right ascension
Unknown
Apparent Declination
Unknown
Sunlit
N/A
Visualization observer readout
Local Sidereal Time
13:44:25
Azimuth
Unknown
Elevation
Unknown
Doppler factor
Unknown
Orbital elements
Apogee altitude
485.68 km
Perigee altitude
484.365 km
Semi-major axis
6,863.16 km
Eccentricity
0.0001
Inclination
43.0005°
RAAN
141.833°
Arg. of periapsis
277.5154°
True anomaly
82.56969°
Mean anomaly
82.5588°
Eccentric anomaly
82.56424°
Mean motion
3.81731 °/min
Orbital period
94.31 mins
BSTAR
-0.000024264
Loading maneuver chart data...
Computing Atmospheric mass density...
Loading historical data...
Loading historical data...
Loading historical data...
Loading historical data...
Loading historical data...
Loading historical data...
Loading historical data...

Documentation

Showing up to 5 results
|